Regional Weather Roundup
Issued by NWS

Home | Current Version | Previous Version | Graphics & Text | Print | Product List | Glossary On
Versions: 1 2 3 4 5 6 7 8 9 10 11 12 13 14 15 16 17 18 19 20 21 22 23 24 25 26 27 28 29 30 31 32 33 34 35 36 37 38 39 40 41 42 43 44 45 46 47 48 49 50
000
ASUS43 KLSX 171359
RWRMO

WEATHER SUMMARY FOR MISSOURI
NATIONAL WEATHER SERVICE SPRINGFIELD MO
900 AM CDT THU APR 17 2014

NOTE: "FAIR" INDICATES FEW OR NO CLOUDS BELOW 12,000 FEET WITH NO
       SIGNIFICANT WEATHER AND/OR OBSTRUCTIONS TO VISIBILITY.
       CURRENT SKY AND/OR WEATHER CONDITIONS ARE NOT AVAILABLE FOR
       CHILLICOTHE AND FARMINGTON.

MOZ001>031-035>038-043-044-053-054-171500-
...NORTHERN AND WESTERN MISSOURI...

CITY           SKY/WX    TMP DP  RH WIND       PRES   REMARKS
KANSAS CTY INT CLOUDY    38  29  70 N15       30.27R WCI  29
KANSAS C DTWN  CLOUDY    40  30  67 N9        30.28R
LEE`S SUMMIT   CLOUDY    39  31  72 N10       30.27R
ST JOSEPH      CLOUDY    37  28  70 N15       30.30R WCI  28
KIRKSVILLE     CLOUDY    39  32  76 NW9       30.24R

$$
MOZ066>068-077>081-088>096-101>105-171500-
...SOUTHWEST MISSOURI...

CITY           SKY/WX    TMP DP  RH WIND       PRES   REMARKS
SPRINGFIELD    CLOUDY    48  35  60 S6        30.21R
JOPLIN         PTSUNNY   47  38  71 N9        30.23R

$$
MOZ032>034-039>042-045>050-055>058-069>072-171500-
...CENTRAL MISSOURI...

CITY           SKY/WX    TMP DP  RH WIND       PRES   REMARKS
COLUMBIA       PTSUNNY   45  36  70 N9        30.22R
JEFFERSON CITY PTSUNNY   47  36  65 NW6       30.22R
ROLLA          PTSUNNY   47  33  58 SW9       30.20R
SEDALIA        CLOUDY    43  35  73 NW12      30.25R
OSAGE BEACH    PTSUNNY   48  30  49 SW3       30.23S

$$
MOZ051-052-059>065-171500-
...EAST CENTRAL MISSOURI...

CITY           SKY/WX    TMP DP  RH WIND       PRES   REMARKS
ST LOUIS INTL  PTSUNNY   53  33  46 W7        30.22R
SPIRIT OF STL  MOSUNNY   54  33  45 SW9       30.21R
ST CHARLES     SUNNY     49  33  54 S5        30.22R

$$
MOZ072>076-082>087-097>100-106>115-171500-
...SOUTH CENTRAL AND SOUTHEAST MISSOURI...

CITY           SKY/WX    TMP DP  RH WIND       PRES   REMARKS
CAPE GIRARDEAU SUNNY     53  39  59 S5        30.29R
FARMINGTON     MOSUNNY   52  34  50 S7        30.27R
POPLAR BLUFF   SUNNY     49  38  65 CALM      30.28R
WEST PLAINS    MOSUNNY   51  35  54 S5        30.25R

$$



USA.gov is the U.S. government's official web portal to all federal, state and local government web resources and services.